Location: *
(46.4000°N, 12.6667°E)
Time: 02:18:44
(UTC+00:00)

ISS - Pass Details

Date: 07 December 2021
Orbit: 413 x 422 km, 51.6° (Epoch: 22 January)

Event Time Altitude Azimuth Distance (km) Brightness Sun altitude
Rises 16:05:30 0° 296° (WNW) 2,386 0.7 -7.3°
Reaches altitude 10° 16:07:37 10° 295° (WNW) 1,517 -0.3 -7.6°
Maximum altitude 16:11:00 76° 211° (SSW) 441 -3.5 -8.1°
Drops below altitude 10° 16:14:23 10° 124° (SE) 1,503 -1.3 -8.7°
Enters shadow 16:16:46 -1° 123° (ESE) 2,483 -0.2 -9.0°
